This demonstration page uses our WeatherBlox Daily Observations layout. Learn more.

39.92423, -83.80882

Hourly Observations for April 15, 2019

Temp ( °F °C ) Dew Point ( °F °C ) Humidity (%) Winds ( mph kmh ) Pressure ( in mb ) Visibility ( mi km ) Precip ( " mm )
12:32 am 00:32 Cloudy with Light Rain 39 4 37 3 93 93 WNW 20 31 29.64 1004 5 8.0467 0 0.0254
12:56 am 00:56 Cloudy with Light Rain 38 3.3 37 2.8 97 97 W 22 35 29.62 1003 8 12.87472 0 0.0254
1:17 am 01:17 Cloudy with Light Rain 37 3 36 2 93 93 W 22 35 29.67 1005 10 16.0934 0 0.0254
1:24 am 01:24 Cloudy with Light Rain 36 2 36 2 100 100 W 21 33 29.68 1005 10 16.0934 0 0.0254
1:35 am 01:35 Cloudy with Light Rain 36 2 34 1 93 93 W 22 35 29.69 1006 10 16.0934 0 0.0254
1:56 am 01:56 Cloudy with Light Rain 36 2.2 32 0 86 86 W 24 39 29.67 1005 10 16.0934 0 0.0254
2:56 am 02:56 Cloudy 35 1.7 31 -0.6 85 85 W 21 33 29.7 1006 9 14.48406 0 0.0254
3:56 am 03:56 Cloudy with Light Snow 34 1.1 33 0.6 97 97 WNW 18 30 29.74 1007 8 12.87472 0 0.0254
4:24 am 04:24 Cloudy with Light Rain 36 2 32 0 87 87 W 20 31 29.78 1009 10 16.0934 0.01 0.254
4:56 am 04:56 Cloudy 35 1.7 32 0 89 89 W 21 33 29.76 1008 10 16.0934 0.01 0.254
5:56 am 05:56 Cloudy 35 1.7 32 0 89 89 W 18 30 29.79 1009 10 16.0934 0 0.0254
6:20 am 06:20 Cloudy with Light Rain 36 2 34 1 93 93 W 20 31 29.84 1011 10 16.0934 0 0.0254
6:56 am 06:56 Cloudy with Light Rain 35 1.7 33 0.6 93 93 W 14 22 29.84 1011 10 16.0934 0 0.0254
7:07 am 07:07 Cloudy 36 2 32 0 87 87 WNW 18 30 29.87 1012 10 16.0934 0 0.0254
7:56 am 07:56 Cloudy 36 2.2 32 0 86 86 W 15 24 29.89 1012 10 16.0934 0 0.0254
8:56 am 08:56 Cloudy 36 2.2 32 0 86 86 WNW 17 28 29.94 1014 10 16.0934 0 0
9:18 am 09:18 Cloudy 36 2 34 1 93 93 WNW 14 22 29.98 1015 10 16.0934 0 0
9:48 am 09:48 Cloudy 37 3 34 1 87 87 W 20 31 29.99 1016 10 16.0934 0 0
9:56 am 09:56 Cloudy 38 3.3 34 1.1 86 86 W 16 26 29.97 1015 10 16.0934 0 0
10:56 am 10:56 Cloudy 38 3.3 34 1.1 86 86 WNW 18 30 30.01 1016 10 16.0934 0 0
11:56 am 11:56 Cloudy 41 5 34 1.1 76 76 W 18 30 30.04 1017 10 16.0934 0 0
12:56 pm 12:56 Cloudy 44 6.7 36 2.2 73 73 W 15 24 30.06 1018 10 16.0934 0 0
1:17 pm 13:17 Mostly Cloudy 46 8 37 3 71 71 WNW 15 24 30.05 1018 10 16.0934 0 0
1:44 pm 13:44 Mostly Cloudy 46 8 37 3 71 71 W 18 30 30.06 1018 10 16.0934 0 0
1:56 pm 13:56 Mostly Cloudy 46 7.8 36 2.2 68 68 WNW 14 22 30.06 1018 10 16.0934 0 0
2:15 pm 14:15 Mostly Cloudy 48 9 37 3 66 66 WNW 18 30 30.07 1018 10 16.0934 0 0
2:56 pm 14:56 Mostly Cloudy 49 9.4 37 2.8 64 64 WNW 15 24 30.08 1019 10 16.0934 0 0
3:56 pm 15:56 Mostly Cloudy 50 10 36 2.2 59 59 WNW 13 20 30.08 1019 10 16.0934 0 0
5:56 pm 17:56 Sunny 51 10.6 35 1.7 54 54 W 14 22 30.1 1019 10 16.0934 0 0
6:56 pm 18:56 Sunny 51 10.6 34 1.1 52 52 W 13 20 30.11 1020 10 16.0934 0 0
7:56 pm 19:56 Sunny 48 8.9 34 1.1 58 58 W 8 13 30.11 1020 10 16.0934 0 0
8:56 pm 20:56 Clear 45 7.2 36 2.2 71 71 WSW 8 13 30.14 1021 10 16.0934 0 0
9:56 pm 21:56 Clear 44 6.7 34 1.1 68 68 SW 5 7 30.14 1021 10 16.0934 0 0
10:56 pm 22:56 Clear 43 6.1 34 1.1 71 71 SW 5 7 30.15 1021 10 16.0934 0 0
11:56 pm 23:56 Clear 41 5 34 1.1 76 76 SW 7 11 30.16 1021 10 16.0934 0 0

Powered by AerisWeather